User: anonymous   Login
Location: Unspecified
(0.0000°N, 0.0000°E)
Time: 08:53:06
(UTC+00:00)
Language:

GALILEO-FM4 - Orbit

View from above orbital plane
View from above orbital plane
View from above satellite
View from above satellite

Ground track
Ground track

The orbit data is extracted from the following two-line orbital elements,

1 38858U 12055B   17173.46973322 +.00000086 +00000-0 +00000-0 0  9994
2 38858 054.9094 191.8838 0004470 250.6042 109.4074 01.70473753029167
Epoch (UTC): 22 June 2017 11:16:24
Eccentricity: 0.0004470
inclination: 54.9094°
perigee height: 23209 km
apogee height: 23235 km
right ascension of ascending node: 191.8838°
argument of perigee: 250.6042°
revolutions per day: 1.70473753
mean anomaly at epoch: 109.4074°
orbit number at epoch: 2916

The dashed part of the orbit path shows where the satellite is in the earth's shadow,  

DLR